Location: Penshurst
(51.1667°N, 0.1833°E)
Time: 17:20:50
(UTC+00:00)

Daily predictions for brighter satellites

Satellite Brightness Start Highest point End
(mag) Time Altitude Azimuth Time Altitude Azimuth Time Altitude Azimuth
FALCON 9 DEB 3.8 21:02:50 10° SSW 21:05:46 31° SE 21:08:42 10° E
SL-8 R/B 3.9 21:02:40 10° WSW 21:07:19 52° SSE 21:12:00 10° E
Terra 2.2 21:03:33 10° SE 21:08:09 52° ENE 21:12:48 10° N
USA 267 3.6 21:03:50 10° ENE 21:09:58 41° SE 21:16:05 10° SSW
Cosmos 1455 3.0 21:07:23 10° N 21:10:56 37° ENE 21:14:29 10° SE
Cosmos 2369 Rocket 3.9 21:07:17 10° NW 21:11:57 28° WSW 21:16:37 10° SSW
Meteor 1-24 Rocket 3.9 21:07:55 10° SSE 21:12:59 48° E 21:18:09 10° NNE
Cosmos 1697 Rocket 4.5 21:09:27 10° NNW 21:13:56 23° NE 21:18:24 10° E
Cosmos 2315 Rocket 4.1 21:07:57 10° S 21:14:12 64° E 21:20:26 10° NNE
NOSS 2-1 (C) 4.3 21:11:37 10° NW 21:15:39 53° NE 21:21:11 10° ESE
Cosmos 1371 Rocket 4.4 21:13:45 10° S 21:18:40 44° ESE 21:23:41 10° NE
Spot 2 Rocket 3.6 21:16:15 10° SSE 21:21:20 87° WSW 21:26:29 10° NNW
NOSS 2-1 (D) 4.2 21:21:54 10° NW 21:26:02 61° NE 21:31:46 10° ESE
CZ-4B R/B 3.2 21:23:47 10° N 21:26:20 28° WNW 21:28:52 10° SW
Lacrosse 5 rocket 1.2 21:23:43 10° WNW 21:27:34 89° NNE 21:31:37 10° ESE
Cosmos 1709 Rocket 4.2 21:21:51 10° NNW 21:28:01 76° W 21:34:13 10° S
ARIANE 5 R/B 2.9 21:23:41 10° SSE 21:28:06 59° ENE 21:32:30 10° N
SPOT 3 Rocket 4.2 21:24:14 10° S 21:29:16 52° W 21:34:24 10° NNW
Cosmos 2074 Rocket 4.4 21:30:04 10° N 21:36:15 54° ENE 21:42:02 12° SSE
ATLAS 2AS CENTAUR R/B 2.8 21:31:01 10° NW 21:38:18 84° NE 21:44:51 11° SE
Cosmos 1624 Rocket 4.1 21:35:16 10° S 21:40:24 60° ESE 21:45:34 10° NNE
Cosmos 1656 4.2 21:36:22 10° NNW 21:41:42 51° NE 21:46:54 11° SE
Cosmos 1190 Rocket 4.4 21:37:13 10° NNW 21:42:30 63° WSW 21:47:39 10° S
ASTRO F (AKARI) 4.5 21:42:15 13° SSE 21:45:23 84° ENE 21:48:57 10° NNW
USA 234 3.3 21:39:25 10° ESE 21:46:00 83° SSW 21:52:37 10° WNW
Cosmos 1833 Rocket 4.4 21:44:37 11° SE 21:47:35 16° E 21:50:52 10° ENE
Cosmos 1455 Rocket 4.1 21:45:37 10° NNW 21:49:45 42° W 21:53:50 10° SSW
Cosmos 2154 Rocket 4.4 21:49:28 10° N 21:55:35 53° ENE 22:00:52 14° SSE
SPOT 5 3.6 21:52:36 10° S 21:56:53 41° W 22:01:03 10° NNW
Cosmos 1271 Rocket 2.9 21:53:49 10° NNW 21:57:48 72° W 22:01:16 13° S
Cosmos 2056 Rocket 3.6 21:54:43 10° SSW 22:00:05 84° ESE 22:05:34 10° NNE
Meteor 2-5 Rocket 4.1 21:56:42 10° SSW 22:02:11 64° WNW 22:07:43 10° N
Cosmos 1025 Rocket 3.8 21:58:58 10° SSW 22:03:07 52° WNW 22:07:20 10° N
Cosmos 2344 4.4 21:58:31 10° NW 22:06:49 65° NE 22:18:10 10° ESE
Cosmos 676 Rocket 4.4 22:03:43 10° NNW 22:08:59 62° WSW 22:13:24 14° S
ERS-1 Rocket 4.0 22:05:04 10° SSW 22:09:48 40° W 22:14:34 10° NNW
Cosmos 1420 Rocket 4.0 22:07:07 10° SSW 22:12:21 86° ESE 22:17:41 10° NNE
Cosmos 1536 Rocket 3.5 22:13:47 13° S 22:17:35 81° E 22:21:57 10° NNE
Cosmos 1607 3.9 22:11:24 10° SSW 22:17:37 76° SE 22:23:48 10° NE
CZ-2C R/B 4.4 22:13:34 10° N 22:18:08 57° WNW 22:22:36 10° SSW
Lacrosse 5 2.0 22:18:56 10° WNW 22:24:01 65° SW 22:27:56 17° SE
Cosmos 1606 Rocket 3.8 22:20:15 10° N 22:24:31 55° ENE 22:27:26 19° SSE
NOSS 2-1 (E) 4.1 22:20:13 10° NW 22:24:40 67° SW 22:29:25 17° SSE
SAR-Lupe-4 3.5 22:23:10 10° NNE 22:26:46 75° ESE 22:29:20 18° S
Cosmos 2184 Rocket 4.1 22:22:27 10° NNW 22:28:37 73° W 22:33:50 15° S
Cosmos 724 4.3 22:25:23 10° SSW 22:31:04 59° ESE 22:36:46 10° NE
Tiangong 3.5 22:32:07 10° SW 22:32:27 11° SW 22:32:27 11° SW
Cosmos 1850 Rocket 4.0 22:30:04 10° NNW 22:35:20 87° WSW 22:39:02 20° SSE
Lacrosse 4 Rocket 4.4 22:33:41 10° W 22:36:37 19° NW 22:39:34 10° NNE
Cosmos 2228 3.0 22:34:04 10° NNW 22:38:19 74° W 22:41:10 20° S
Cosmos 1328 4.3 22:37:11 22° SSE 22:39:30 47° E 22:43:22 10° NNE
Meteor 1-21 Rocket 4.2 22:35:48 17° S 22:40:09 69° E 22:45:46 10° NNE
Cosmos 2341 Rocket 4.4 22:34:06 10° N 22:40:21 55° ENE 22:45:04 18° SSE
Cosmos 1703 3.3 22:38:48 16° SSW 22:41:45 75° W 22:45:38 10° N
FALCON 9 DEB 3.1 22:38:35 10° WSW 22:41:51 79° NNW 22:45:08 10° ENE
SAR-Lupe-1 4.4 22:38:44 10° N 22:42:18 65° WNW 22:45:12 15° SSW
Cosmos 1408 3.9 22:43:33 19° SE 22:44:53 24° E 22:47:44 10° NE
Cosmos 1455 4.3 22:43:19 10° NW 22:46:11 21° W 22:49:04 10° SW
Terra 3.6 22:42:22 10° SW 22:46:12 24° W 22:50:04 10° NW
Cosmos 1825 4.3 22:46:54 12° ESE 22:48:27 15° E 22:50:38 10° NE
ALOS 2 3.2 22:46:37 19° SE 22:49:32 48° ENE 22:53:47 10° N
SL-8 R/B 3.7 22:44:50 10° W 22:49:36 63° S 22:54:22 10° ESE
Cosmos 1726 Rocket 3.5 22:46:38 10° N 22:50:59 78° E 22:53:36 23° SSE
USA 267 3.3 22:46:49 10° ENE 22:53:24 84° NNW 22:59:57 10° WSW
Cosmos 1980 Rocket 2.9 22:48:39 10° NNW 22:54:12 50° NE 22:59:14 12° SE
RESURS DK-1 2.3 22:52:30 10° NNW 22:56:39 81° WSW 22:59:03 24° SSE
Cosmos 1697 Rocket 2.7 22:53:02 10° NNW 22:58:43 88° ENE 23:02:42 20° SSE
Cosmos 1331 Rocket 4.2 22:57:22 20° S 23:00:55 58° ESE 23:06:09 10° NNE
Cosmos 1452 Rocket 3.5 22:57:19 13° SSW 23:02:01 88° WNW 23:07:20 10° NNE
Lacrosse 5 rocket 2.9 23:03:15 10° W 23:06:13 20° SW 23:07:17 18° SSW
Spot 4 3.8 23:04:25 23° S 23:07:26 77° WSW 23:12:15 10° NNW
ASTEX 1 3.6 23:02:53 10° N 23:07:53 70° W 23:11:36 18° SSW
Cosmos 1892 3.4 23:06:34 25° SE 23:08:10 39° E 23:11:42 10° NNE
ERS-2 3.6 23:05:17 10° NE 23:08:15 24° E 23:09:26 20° SE
USA 276 3.5 23:10:14 21° ESE 23:10:14 21° ESE 23:11:36 10° E
Cosmos 2084 3.6 23:05:28 10° WSW 23:09:17 63° NW 23:13:10 10° NE
Cosmos 2084 Rocket 4.2 23:05:33 10° NW 23:09:18 46° NE 23:13:10 10° ESE
ADEOS Rocket 3.5 23:05:35 19° SSE 23:10:56 76° ENE 23:18:32 10° NNW
Cosmos 2058 Rocket 3.0 23:09:48 10° N 23:14:13 80° E 23:16:43 25° SSE
Cosmos 1110 Rocket 4.0 23:15:12 18° SSW 23:19:09 85° ESE 23:24:29 10° NNE
Cosmos 2181 Rocket 4.2 23:15:18 21° SSE 23:19:19 57° E 23:25:22 10° NNE
GP-B 3.4 23:15:53 10° N 23:20:17 64° W 23:23:05 22° SSW
Cosmos 2360 4.3 23:15:39 10° NW 23:21:21 68° WSW 23:25:00 23° SSE
Cosmos 2278 4.5 23:16:39 10° NNW 23:22:13 49° NE 23:27:31 11° SE
Cosmos 2322 Rocket 4.2 23:18:22 10° NNW 23:22:57 24° NE 23:27:32 10° E
Cosmos 1302 Rocket 4.5 23:21:10 24° SSE 23:23:59 46° ESE 23:28:57 10° NE
Cosmos 1892 Rocket 3.6 23:22:22 24° SSW 23:25:03 85° W 23:29:30 10° N
ATLAS 2AS CENTAUR R/B 3.9 23:22:45 10° WNW 23:28:27 27° WSW 23:32:16 16° SSW
USA 234 4.1 23:26:12 20° S 23:29:37 32° SW 23:35:23 10° WNW
Cosmos 1833 Rocket 2.6 23:26:17 17° SSW 23:30:39 84° ESE 23:36:19 10° NNE
BREEZE-M DEB (TANK) 3.6 23:36:03 10° W 23:39:18 73° S 23:51:31 10° ESE
Okean 1-7 Rocket 3.8 23:39:49 27° SSE 23:42:05 62° E 23:46:31 10° NNE
Cosmos 1626 Rocket 3.8 23:42:03 27° SSE 23:44:11 55° E 23:48:26 10° NNE
Cosmos 2082 Rocket 2.6 23:41:32 24° S 23:44:48 51° ESE 23:50:19 10° NE
Cosmos 1821 Rocket 4.4 23:40:08 10° N 23:46:24 59° ENE 23:50:56 19° SSE
Meteor 1-27 4.2 23:42:15 10° NNW 23:47:52 86° W 23:51:21 24° S
Cosmos 1869 3.1 23:45:15 10° N 23:49:07 89° ENE 23:50:55 31° S
ATLAS 5 CENTAUR R/B 3.5 23:51:03 11° ESE 23:51:30 12° ESE 23:52:52 10° E
Cosmos-2242 3.6 23:50:48 10° N 23:54:57 49° ENE 23:57:29 21° SE
BREEZE-M DEB (TANK) 3.8 23:46:53 10° SW 23:56:15 47° SSE 23:59:30 10° E
